"datetime","# probes","# resolvers","can_ipv6","can_ipv6_prbs","can_tcp","can_tcp_prbs","can_tcp6","can_tcp6_prbs","does_ecs","does_ecs_prbs","does_flagday","does_flagday_prbs","does_rov4","does_rov4_prbs","does_rov6","does_rov6_prbs","does_qnamemin","doesnt_qnamemin","does_qnamemin_prbs","doesnt_qnamemin_prbs","does_nxdomain","doesnt_nxdomain","does_nxdomain_prbs","doesnt_nxdomain_prbs","has_ta_19036","hasnt_ta_19036","has_ta_19036_prbs","hasnt_ta_19036_prbs","has_ta_20326","hasnt_ta_20326","has_ta_20326_prbs","hasnt_ta_20326_prbs","can_rsamd5","cannot_rsamd5","broken_rsamd5","can_rsamd5_prbs","cannot_rsamd5_prbs","broken_rsamd5_prbs","can_dsa","cannot_dsa","broken_dsa","can_dsa_prbs","cannot_dsa_prbs","broken_dsa_prbs","can_rsasha1","cannot_rsasha1","broken_rsasha1","can_rsasha1_prbs","cannot_rsasha1_prbs","broken_rsasha1_prbs","can_dsansec3","cannot_dsansec3","broken_dsansec3","can_dsansec3_prbs","cannot_dsansec3_prbs","broken_dsansec3_prbs","can_rsansec3","cannot_rsansec3","broken_rsansec3","can_rsansec3_prbs","cannot_rsansec3_prbs","broken_rsansec3_prbs","can_rsasha256","cannot_rsasha256","broken_rsasha256","can_rsasha256_prbs","cannot_rsasha256_prbs","broken_rsasha256_prbs","can_rsasha512","cannot_rsasha512","broken_rsasha512","can_rsasha512_prbs","cannot_rsasha512_prbs","broken_rsasha512_prbs","can_eccgost","cannot_eccgost","broken_eccgost","can_eccgost_prbs","cannot_eccgost_prbs","broken_eccgost_prbs","can_ecdsa256","cannot_ecdsa256","broken_ecdsa256","can_ecdsa256_prbs","cannot_ecdsa256_prbs","broken_ecdsa256_prbs","can_ecdsa384","cannot_ecdsa384","broken_ecdsa384","can_ecdsa384_prbs","cannot_ecdsa384_prbs","broken_ecdsa384_prbs","can_ed25519","cannot_ed25519","broken_ed25519","can_ed25519_prbs","cannot_ed25519_prbs","broken_ed25519_prbs","can_ed448","cannot_ed448","broken_ed448","can_ed448_prbs","cannot_ed448_prbs","broken_ed448_prbs","can_gost","cannot_gost","broken_gost","can_gost_prbs","cannot_gost_prbs","broken_gost_prbs","can_sha384","cannot_sha384","broken_sha384","can_sha384_prbs","cannot_sha384_prbs","broken_sha384_prbs","is_internal","is_forwarding","is_external","is_internal_prbs","is_forwarding_prbs","is_external_prbs"
2017-06-20T23:59:59Z,250,449,444,246,449,250,439,245,74,61,0,0,0,0,0,0,2,447,1,249,2,445,1,247,0,0,0,0,0,0,0,0,352,19,76,191,33,57,372,75,0,202,69,1,447,1,0,249,23,1,373,74,0,203,69,1,448,0,0,249,22,1,449,0,0,250,22,1,448,0,0,250,21,1,19,427,2,16,238,2,443,4,0,246,23,1,443,4,1,246,24,2,0,447,2,0,249,2,0,447,2,0,249,2,88,359,2,65,206,2,444,4,0,246,24,1,363,27,59,203,33,48
2017-06-21T23:59:59Z,249,454,449,245,454,249,444,244,78,63,0,0,0,0,0,0,2,452,1,248,2,450,1,246,0,0,0,0,0,0,0,0,356,17,80,192,32,60,378,75,0,204,69,1,453,0,0,249,21,1,379,74,0,203,69,1,454,0,0,249,22,1,454,0,0,249,22,1,454,0,0,249,22,1,19,432,2,16,237,2,449,4,0,245,23,1,450,4,0,246,23,1,0,452,2,0,248,2,0,452,2,0,248,2,88,364,2,65,205,2,449,4,0,245,23,1,368,26,60,203,32,48
2017-06-22T23:59:59Z,252,456,451,248,456,252,445,247,76,60,0,0,0,0,0,0,2,454,1,251,2,452,1,249,0,0,0,0,0,0,0,0,356,18,81,193,31,61,377,78,0,205,70,1,453,2,0,251,22,1,377,78,0,204,70,1,456,0,0,252,20,1,456,0,0,252,20,1,455,1,0,251,21,1,19,434,2,16,240,2,449,5,1,247,23,2,450,5,1,248,23,2,0,453,3,0,250,3,0,454,2,0,251,2,92,362,2,67,206,2,450,5,0,248,23,1,369,27,60,206,32,47
2017-06-23T23:59:58Z,251,458,453,247,457,251,452,247,81,62,0,0,0,0,0,0,2,456,1,250,2,455,1,249,0,0,0,0,0,0,0,0,358,17,82,194,30,59,377,80,0,203,70,1,457,0,0,251,20,1,378,79,0,203,70,1,457,1,0,250,21,1,458,0,0,251,20,1,457,1,0,251,21,1,19,436,2,16,239,2,453,4,0,247,22,1,453,5,0,248,23,1,0,456,2,0,250,2,0,456,2,0,250,2,93,363,2,67,206,2,452,5,0,247,23,1,366,31,61,202,35,47
2017-06-24T23:59:59Z,253,460,455,249,459,253,450,249,82,64,0,0,0,0,0,0,2,458,1,252,2,456,1,250,0,0,0,0,0,0,0,0,358,18,83,195,32,61,377,83,0,204,73,1,459,0,0,253,21,1,380,80,0,206,70,1,459,1,0,252,22,1,460,0,0,253,21,1,458,2,0,252,23,1,19,438,2,16,241,2,453,6,0,248,25,1,455,5,0,250,24,1,0,458,2,0,252,2,0,458,2,0,252,2,93,365,2,67,208,2,454,4,1,248,23,2,367,31,62,203,35,48
2017-06-25T23:59:59Z,254,459,454,250,459,254,451,248,79,61,0,0,0,0,0,0,0,459,0,254,2,454,1,251,0,0,0,0,0,0,0,0,358,19,82,196,33,61,376,83,0,205,74,2,456,3,0,252,24,2,379,80,0,206,71,2,458,1,0,254,22,2,459,0,0,254,21,2,458,1,0,254,22,2,19,439,0,16,243,2,454,4,0,250,23,2,452,7,0,249,26,2,0,459,0,0,254,2,0,459,0,0,254,2,93,366,0,67,210,2,452,6,0,248,25,2,367,30,62,205,34,48
2017-06-26T23:59:59Z,255,461,456,251,461,255,437,250,82,65,0,0,0,0,0,0,2,459,1,254,2,456,1,251,0,0,0,0,0,0,0,0,360,17,84,197,32,61,379,82,0,206,74,1,460,1,0,254,23,1,380,81,0,206,73,1,461,0,0,255,22,1,461,0,0,255,23,1,461,0,0,255,22,1,19,439,2,16,243,2,456,4,0,251,24,1,457,4,0,252,24,1,0,459,2,0,254,2,0,459,2,0,254,2,94,365,2,68,209,2,456,4,0,251,25,1,368,31,62,205,36,49
2017-06-27T23:59:59Z,253,458,453,249,458,253,438,247,81,63,0,0,0,0,0,0,2,456,1,252,2,453,1,249,0,0,0,0,0,0,0,0,359,17,82,196,31,59,378,80,0,206,70,1,458,0,0,253,20,1,379,79,0,206,69,1,457,1,0,252,21,1,458,0,0,253,21,1,458,0,0,253,20,1,18,437,2,15,242,2,452,5,0,248,23,1,454,4,0,250,22,1,0,456,2,0,252,2,0,456,2,0,252,2,93,363,2,67,207,2,453,4,0,249,22,1,369,30,59,206,34,47
2017-06-28T23:59:59Z,256,462,457,252,462,256,446,251,82,62,0,0,0,0,0,0,4,458,2,254,2,457,1,252,0,0,0,0,0,0,0,0,361,17,84,198,32,61,382,80,0,208,72,2,459,3,0,254,22,2,383,79,0,209,70,1,462,0,0,256,22,2,462,0,0,256,22,2,462,0,0,256,21,2,21,436,4,17,243,4,455,6,0,251,24,2,455,7,0,251,24,2,0,458,4,1,254,3,0,458,4,0,254,4,92,366,4,66,210,4,453,8,0,249,26,2,369,32,61,207,35,47
2017-06-29T23:59:59Z,255,460,455,251,459,254,442,248,83,65,0,0,0,0,0,0,2,458,1,254,2,455,1,251,0,0,0,0,0,0,0,0,358,19,83,196,33,60,380,80,0,208,70,1,460,0,0,255,21,1,380,80,0,207,70,1,459,1,0,255,22,1,460,0,0,255,21,1,459,1,0,255,22,1,18,439,2,15,244,2,453,6,0,250,25,1,455,5,0,252,24,1,0,458,2,0,254,2,0,458,2,0,254,2,94,364,2,68,209,2,454,5,0,250,24,1,367,31,62,205,35,48
2017-06-30T23:59:59Z,253,457,452,249,457,253,444,249,81,61,0,0,0,0,0,0,2,455,1,252,2,452,1,249,0,0,0,0,0,0,0,0,358,17,82,197,29,59,378,79,0,207,68,1,457,0,0,253,19,1,379,78,0,207,68,1,457,0,0,253,20,1,457,0,0,253,20,1,456,1,0,252,20,1,19,436,2,16,242,2,451,5,0,248,22,1,452,5,0,249,23,1,0,455,2,0,252,2,0,454,3,0,252,3,91,364,2,65,209,2,452,4,0,249,21,1,368,30,59,206,33,46
2017-07-01T23:59:59Z,256,461,456,252,461,256,438,252,76,59,0,0,0,0,0,0,4,457,2,254,2,456,1,252,0,0,0,0,0,0,0,0,362,18,81,200,31,58,384,77,0,210,69,1,460,1,0,255,22,1,384,77,0,211,69,1,459,1,1,254,22,2,461,0,0,256,21,1,460,1,0,255,22,1,20,437,4,17,243,3,455,5,0,251,24,1,457,4,0,253,23,1,0,457,4,0,254,3,0,457,4,0,254,3,91,366,4,66,211,3,455,5,0,251,23,1,373,27,61,210,32,47
2017-07-02T23:59:59Z,254,459,454,250,459,254,435,247,78,59,0,0,0,0,0,0,4,455,2,252,2,454,1,250,0,0,0,0,0,0,0,0,358,19,82,196,32,59,382,77,0,208,67,1,459,0,0,254,21,1,382,77,0,208,68,1,459,0,0,254,21,1,459,0,0,254,21,1,459,0,0,254,21,1,19,436,4,16,242,3,453,5,0,249,24,1,454,5,0,250,24,1,0,455,4,0,252,3,0,455,4,0,252,3,90,365,4,65,210,3,454,4,0,250,22,1,373,26,60,209,30,47
2017-07-03T23:59:59Z,256,460,455,252,460,256,433,249,82,63,0,0,0,0,0,0,4,456,2,254,2,455,2,252,0,0,0,0,0,0,0,0,360,20,80,198,32,60,379,81,0,209,71,2,456,4,0,254,24,2,381,79,0,209,71,2,459,1,0,255,23,2,460,0,0,256,22,2,458,2,0,255,22,2,22,434,4,18,243,4,453,6,0,251,24,2,452,7,1,251,25,3,0,456,4,0,254,4,0,456,4,0,254,4,93,363,4,67,210,4,451,8,0,250,26,2,370,30,60,208,34,48
2017-07-04T23:59:59Z,258,469,464,254,469,258,438,251,84,64,0,0,0,0,0,0,2,467,1,257,2,464,2,254,0,0,0,0,0,0,0,0,365,20,84,201,33,61,383,85,1,210,73,3,468,1,0,258,23,2,388,81,0,212,70,2,468,1,0,257,23,2,469,0,0,258,22,2,469,0,0,258,22,2,23,444,2,19,246,3,463,5,0,254,25,2,465,4,0,255,24,2,0,467,2,0,257,3,0,466,3,0,257,4,95,372,2,67,214,3,463,5,0,254,25,2,375,29,65,211,34,50
2017-07-05T23:59:59Z,258,468,463,254,468,258,442,251,85,64,0,0,0,0,0,0,0,468,0,258,2,463,2,254,0,0,0,0,0,0,0,0,367,18,83,201,32,61,385,83,0,210,71,2,467,1,0,258,22,2,382,86,0,209,74,2,468,0,0,258,21,2,468,0,0,258,21,2,467,1,0,258,22,2,20,448,0,17,247,2,462,5,0,253,24,2,462,6,0,254,25,2,0,468,0,0,258,2,0,468,0,0,258,2,97,371,0,69,214,2,461,6,0,253,25,2,373,28,67,209,33,51
2017-07-06T23:59:59Z,257,469,464,253,469,257,418,242,87,66,0,0,0,0,0,0,0,469,0,257,2,464,2,253,0,0,0,0,0,0,0,0,366,19,84,198,32,62,384,85,0,208,73,2,467,2,0,256,22,2,387,82,0,210,72,2,469,0,0,257,22,2,469,0,0,257,22,2,467,2,0,256,21,2,20,449,0,16,248,2,463,6,0,253,24,2,463,6,0,253,23,2,0,469,0,0,257,2,0,469,0,0,257,2,99,370,0,70,210,2,462,6,0,252,23,2,373,30,66,208,34,50
2017-07-07T23:59:59Z,256,470,465,252,470,256,465,252,86,66,0,0,0,0,0,0,0,470,0,256,2,465,2,252,0,0,0,0,0,0,0,0,368,17,85,198,30,63,387,83,0,208,72,2,469,0,1,256,20,3,388,81,1,208,70,3,469,1,0,256,21,2,470,0,0,256,20,3,469,1,0,256,21,2,18,452,0,15,247,2,465,5,0,253,23,2,465,4,1,252,22,3,0,470,0,0,256,2,0,470,0,0,256,2,96,374,0,69,211,2,465,4,0,252,22,2,375,30,65,206,35,50
2017-07-08T23:59:59Z,256,468,463,252,468,256,462,251,83,63,0,0,0,0,0,0,0,468,0,256,2,462,2,251,0,0,0,0,0,0,0,0,368,18,82,199,30,61,389,79,0,211,70,2,468,0,0,256,18,2,389,79,0,210,68,2,468,0,0,256,18,2,468,0,0,256,19,2,468,0,0,256,19,2,19,449,0,16,246,2,464,4,0,253,21,2,464,4,0,253,21,2,0,468,0,0,256,2,0,468,0,0,256,2,93,375,0,67,211,2,462,4,1,251,20,3,377,30,61,208,33,47
2017-07-09T23:59:59Z,259,472,467,255,472,259,464,254,81,62,0,0,0,0,0,0,0,472,0,259,3,466,3,254,0,0,0,0,0,0,0,0,369,18,85,199,31,64,390,82,0,210,73,2,470,2,0,257,21,2,393,79,0,212,68,2,472,0,0,259,20,2,472,0,0,259,20,2,472,0,0,259,19,2,19,453,0,16,249,2,466,6,0,254,23,2,467,5,0,255,22,2,0,472,0,0,259,2,0,472,0,0,259,2,94,378,0,68,214,2,465,6,0,253,23,2,380,30,62,211,33,48
2017-07-10T23:59:59Z,264,483,477,260,482,264,475,259,85,67,0,0,0,0,0,0,0,483,0,264,3,476,3,258,0,0,0,0,0,0,0,0,380,18,84,205,33,63,399,83,1,214,76,3,481,1,0,262,22,2,400,83,0,215,74,2,483,0,0,264,22,2,483,0,0,264,22,2,483,0,0,264,21,2,19,464,0,16,254,2,477,5,0,259,25,2,477,5,0,259,24,2,0,483,0,0,264,2,0,483,0,0,264,2,99,384,0,72,216,2,475,5,0,258,25,2,387,32,64,213,39,49
2017-07-11T23:59:59Z,263,477,471,258,476,262,470,257,83,65,0,0,0,0,0,0,0,477,0,263,2,472,2,259,0,0,0,0,0,0,0,0,374,19,83,202,31,63,393,84,0,212,74,2,476,0,0,262,19,2,392,85,0,212,75,2,476,1,0,263,20,2,477,0,0,263,19,2,476,1,0,263,20,2,20,457,0,17,252,2,471,5,0,259,22,2,470,6,0,258,23,2,0,477,0,0,263,2,0,477,0,0,263,2,98,379,0,71,214,2,469,5,0,256,22,2,383,31,63,214,35,48
2017-07-12T23:59:59Z,265,477,472,261,476,265,472,261,87,68,0,0,0,0,0,0,0,477,0,265,2,472,2,261,0,0,0,0,0,0,0,0,372,18,86,202,31,65,391,86,0,213,75,2,475,1,0,264,21,2,388,89,0,211,78,2,477,0,0,265,20,2,477,0,0,265,20,2,477,0,0,265,20,2,20,457,0,17,254,2,471,5,0,260,23,2,471,5,0,260,23,2,0,477,0,0,265,2,0,477,0,0,265,2,99,378,0,73,216,2,468,6,0,258,24,2,380,33,64,212,36,50
2017-07-13T23:59:59Z,264,472,467,260,472,264,467,260,87,69,0,0,0,0,0,0,0,472,0,264,2,466,2,260,0,0,0,0,0,0,0,0,369,17,85,202,31,65,387,85,0,212,76,2,471,0,0,263,22,2,387,85,0,212,76,2,472,0,0,264,21,2,472,0,0,264,22,2,472,0,0,264,21,2,20,452,0,17,253,2,467,4,0,260,24,2,467,4,0,260,24,2,0,472,0,0,264,2,0,472,0,0,264,2,99,373,0,73,215,2,465,4,0,258,23,2,375,31,66,211,36,51
2017-07-14T23:59:59Z,264,474,469,260,474,264,467,258,88,68,0,0,0,0,0,0,0,474,0,264,2,467,2,258,0,0,0,0,0,0,0,0,368,19,86,199,31,66,386,88,0,210,77,2,470,2,1,261,21,3,389,85,0,212,74,2,473,1,0,264,20,2,474,0,0,264,19,2,473,1,0,264,20,2,19,454,1,16,254,3,467,6,0,259,23,2,467,6,0,258,23,2,0,474,0,0,264,2,0,474,0,0,264,2,98,376,0,72,215,2,465,6,0,256,23,2,380,31,63,213,35,49
2017-07-15T23:59:58Z,263,475,470,259,475,263,469,258,87,68,0,0,0,0,0,0,2,473,1,262,3,469,2,258,0,0,0,0,0,0,0,0,365,21,88,198,35,65,385,90,0,208,79,1,471,3,0,260,24,1,387,87,1,209,77,2,475,0,0,263,21,1,475,0,0,263,21,1,474,1,0,263,22,1,22,451,2,19,251,2,468,6,0,258,25,1,467,7,0,257,26,1,0,473,2,0,262,2,0,473,2,0,262,2,101,372,2,74,213,2,467,5,0,256,24,1,377,32,66,209,37,51
2017-07-16T23:59:59Z,264,476,469,259,476,264,467,257,91,71,0,0,0,0,0,0,3,473,2,262,3,469,2,258,0,0,0,0,0,0,0,0,362,24,89,198,36,66,385,91,0,210,80,1,473,2,0,262,23,1,387,89,0,213,78,1,475,1,0,263,22,1,476,0,0,264,21,1,474,2,0,263,23,1,20,454,2,17,252,2,470,5,0,259,24,1,470,5,0,259,24,1,0,474,2,0,263,2,0,474,2,0,263,2,100,374,2,73,215,2,466,7,0,256,26,1,376,34,66,210,37,51
2017-07-17T23:59:59Z,261,469,462,255,469,261,461,254,85,66,0,0,0,0,0,0,2,467,1,260,3,463,2,256,0,0,0,0,0,0,0,0,358,24,86,194,36,64,384,85,0,211,75,1,468,0,0,260,21,1,384,85,0,211,76,1,469,0,0,261,21,1,469,0,0,261,21,1,469,0,0,261,21,1,19,448,2,16,250,2,462,6,0,255,24,1,462,6,0,255,24,1,0,467,2,0,260,2,0,467,2,0,260,2,99,368,2,71,212,2,460,6,0,253,25,1,375,30,64,212,34,50
2017-07-18T23:59:59Z,262,469,462,256,469,262,460,255,89,68,0,0,0,0,0,0,2,467,1,261,2,464,1,258,0,0,0,0,0,0,0,0,359,24,85,196,35,64,381,88,0,210,75,1,466,2,0,260,21,1,381,88,0,210,75,1,466,3,0,260,21,1,469,0,0,262,21,1,468,1,0,261,21,1,20,447,2,17,250,2,463,5,0,257,23,1,463,5,0,257,23,1,0,467,2,0,261,2,0,467,2,0,261,2,99,368,2,72,213,2,461,5,0,255,23,1,371,35,63,209,36,49
2017-07-19T23:59:59Z,260,466,459,254,466,260,458,253,87,68,0,0,0,0,0,0,0,466,0,260,2,460,1,255,0,0,0,0,0,0,0,0,357,23,85,196,35,63,380,86,0,210,75,1,465,0,0,259,19,1,380,86,0,210,75,1,464,2,0,259,21,1,466,0,0,260,19,1,466,0,0,260,19,1,19,447,0,16,250,1,460,5,0,256,22,1,459,5,1,255,22,2,0,466,0,0,260,1,0,465,1,0,260,2,100,366,0,74,211,1,460,4,0,255,21,1,370,33,63,208,35,49
2017-07-20T23:59:58Z,259,467,460,253,467,259,459,253,86,67,0,0,0,0,0,0,0,467,0,259,2,460,1,253,0,0,0,0,0,0,0,0,362,21,83,198,33,61,384,83,0,210,73,1,465,1,0,257,20,1,384,83,0,211,74,1,466,0,1,259,20,2,467,0,0,259,20,1,466,1,0,259,21,1,20,447,0,17,248,1,460,6,0,254,23,1,460,6,0,254,23,1,0,467,0,0,259,1,0,467,0,0,259,1,96,371,0,70,213,1,460,5,0,253,22,1,373,30,64,210,33,50
2017-07-21T23:59:59Z,263,471,464,257,471,263,463,256,87,69,0,0,0,0,0,0,2,469,1,262,2,465,1,258,0,0,0,0,0,0,0,0,361,22,87,199,35,64,385,86,0,213,78,1,468,2,0,261,22,1,387,84,0,214,76,1,471,0,0,263,21,1,471,0,0,263,21,1,469,2,0,262,23,1,20,448,3,17,252,3,464,6,0,257,24,1,464,6,0,258,24,1,0,469,2,0,262,2,0,469,2,0,262,2,97,372,2,71,214,2,465,4,0,258,23,1,375,32,64,212,35,50
2017-07-22T23:59:58Z,260,468,461,254,468,260,459,253,82,64,0,0,0,0,0,0,2,466,1,259,2,462,1,255,0,0,0,0,0,0,0,0,358,22,87,196,34,64,385,83,0,211,73,1,467,0,0,259,19,1,385,83,0,211,73,1,466,2,0,259,21,1,468,0,0,260,19,1,468,0,0,260,19,1,20,446,2,17,248,2,462,5,0,256,22,1,463,4,0,256,21,1,0,465,3,0,259,3,0,466,2,0,259,2,96,370,2,70,212,2,461,5,0,255,22,1,373,31,64,210,34,49
2017-07-23T23:59:59Z,258,467,459,252,467,258,458,251,86,64,0,0,0,0,0,0,2,464,1,257,2,460,1,253,0,0,0,0,0,0,0,0,359,20,86,196,31,63,381,86,0,209,73,1,465,1,0,257,19,1,380,87,0,208,74,1,465,2,0,257,20,1,467,0,0,258,18,1,466,1,0,258,19,1,20,445,2,17,246,2,460,6,0,253,22,1,461,5,0,254,21,1,0,465,2,0,257,2,0,465,2,0,257,2,99,366,2,71,209,2,459,5,0,253,21,1,373,30,64,210,32,49
2017-07-24T23:59:59Z,262,471,464,256,471,262,463,255,86,66,0,0,0,0,0,0,2,469,1,261,2,465,1,257,0,0,0,0,0,0,0,0,362,21,87,200,32,63,387,84,0,214,72,1,469,1,0,261,19,1,388,83,0,215,72,1,470,1,0,262,19,1,471,0,0,262,18,1,470,1,0,261,19,1,20,449,2,17,250,2,466,4,0,258,20,1,466,4,0,258,20,1,0,469,2,0,261,2,0,469,2,0,261,2,99,370,2,71,213,2,464,5,0,256,21,1,376,31,64,213,33,49
2017-07-25T23:59:59Z,262,472,464,256,472,262,462,255,84,67,0,0,0,0,0,0,2,470,1,261,2,467,1,258,0,0,0,0,0,0,0,0,363,22,86,199,35,63,388,84,0,213,75,1,470,0,0,261,20,1,386,85,0,212,76,1,471,0,0,262,20,1,472,0,0,262,20,1,472,0,0,262,20,1,20,449,2,17,250,2,466,4,0,258,22,1,466,5,0,258,23,1,0,470,2,0,261,2,0,470,2,0,261,2,99,371,2,72,212,2,464,5,0,257,23,1,375,30,67,212,34,51
2017-07-26T23:59:59Z,264,472,465,258,472,264,463,257,83,66,0,0,0,0,0,0,2,470,1,263,2,467,1,260,0,0,0,0,0,0,0,0,362,22,87,200,36,64,386,86,0,213,77,1,468,2,0,261,23,1,385,86,0,213,77,1,472,0,0,264,21,1,472,0,0,264,21,1,472,0,0,264,21,1,21,448,2,18,250,2,465,5,0,259,24,1,467,4,0,260,23,1,0,470,2,0,263,2,0,470,2,0,263,2,101,369,2,75,212,2,465,4,0,258,23,1,375,30,67,212,34,52
2017-07-27T23:59:59Z,261,465,458,255,465,261,457,254,86,66,0,0,0,0,0,0,2,463,1,260,2,459,2,256,0,0,0,0,0,0,0,0,358,23,83,199,34,62,382,83,0,213,75,2,464,0,0,260,21,1,383,82,0,213,73,2,465,0,0,261,21,1,465,0,0,261,21,1,464,1,0,261,20,1,22,440,2,18,248,3,457,6,0,255,23,1,458,6,0,256,22,1,0,463,2,0,260,2,0,463,2,0,260,2,101,362,2,75,211,2,459,4,0,256,23,2,368,31,66,210,34,50
2017-07-28T23:59:59Z,258,466,459,252,466,258,457,250,84,64,0,0,0,0,0,0,0,466,0,258,3,460,2,253,0,0,0,0,0,0,0,0,357,22,85,197,34,62,383,83,0,211,72,1,465,0,0,257,20,1,383,82,0,212,71,1,466,0,0,258,19,1,466,0,0,258,20,1,465,0,0,258,19,1,20,444,1,17,246,2,459,5,0,252,23,1,460,5,0,253,23,1,0,466,0,0,258,1,0,466,0,0,258,1,99,367,0,72,211,1,459,5,0,252,22,1,370,28,68,209,32,51
2017-07-29T23:59:59Z,257,461,454,251,461,257,453,250,85,64,0,0,0,0,0,0,0,461,0,257,2,455,1,252,0,0,0,0,0,0,0,0,355,22,82,197,33,59,380,81,0,210,69,1,459,1,0,256,19,1,379,81,0,210,69,1,458,1,2,256,19,3,461,0,0,257,18,1,460,0,0,257,18,1,21,439,0,18,244,1,454,5,0,252,21,1,456,4,0,253,20,1,0,461,0,0,257,1,0,461,0,0,257,1,96,365,0,69,210,1,454,4,1,251,20,1,367,29,65,207,32,49
2017-07-30T23:59:59Z,259,463,456,253,463,259,456,253,85,67,0,0,0,0,0,0,0,463,0,259,3,457,2,254,0,0,0,0,0,0,0,0,354,22,85,197,35,62,378,85,0,209,75,1,460,2,0,257,22,1,379,83,0,212,73,1,463,0,0,259,20,1,463,0,0,259,20,1,461,1,0,259,21,1,21,441,0,18,246,1,455,6,0,253,24,1,457,5,0,254,23,1,0,463,0,0,259,1,0,463,0,0,259,1,98,365,0,71,210,1,456,5,0,253,23,1,366,30,67,207,34,51
2017-07-31T23:59:59Z,258,461,453,252,461,258,453,252,88,68,0,0,0,0,0,0,0,461,0,258,2,456,1,254,0,0,0,0,0,0,0,0,355,21,84,197,33,62,376,85,0,209,73,2,459,1,0,257,20,2,377,83,0,209,71,2,460,1,0,258,20,1,461,0,0,258,19,1,460,0,0,258,19,2,22,439,0,18,246,1,455,4,0,254,21,2,455,5,0,254,22,2,0,461,0,0,258,2,0,461,0,0,258,2,99,362,0,71,210,2,454,5,0,253,22,1,364,30,67,206,34,50
2017-08-01T23:59:59Z,261,465,458,255,465,261,456,253,88,68,0,0,0,0,0,0,2,463,1,260,2,460,1,257,0,0,0,0,0,0,0,0,357,22,85,198,35,62,379,86,0,210,75,1,463,1,0,259,21,1,378,86,0,211,75,1,464,1,0,261,21,1,465,0,0,261,20,1,464,0,0,261,20,1,21,442,2,18,248,2,459,4,0,256,22,1,459,5,0,257,23,2,0,463,2,0,260,2,0,462,3,0,259,4,99,364,2,72,211,2,459,4,0,256,22,1,368,29,68,209,33,51
2017-08-02T23:59:59Z,259,461,454,253,461,259,453,252,84,65,0,0,0,0,0,0,2,459,1,258,2,456,1,255,0,0,0,0,0,0,0,0,355,20,85,197,32,62,378,83,0,211,72,1,460,0,0,258,19,1,377,83,0,211,72,1,461,0,0,259,19,1,461,0,0,259,19,1,460,0,0,259,19,1,22,437,2,19,245,2,454,5,0,254,22,1,455,5,0,255,22,1,0,459,2,0,258,2,0,459,2,0,258,2,97,362,2,70,210,2,454,5,0,254,22,1,364,30,67,208,34,50
2017-08-03T23:59:59Z,261,465,458,255,465,261,456,253,86,65,0,0,0,0,0,0,2,463,1,260,3,459,2,256,0,0,0,0,0,0,0,0,358,21,85,199,33,61,381,84,0,211,72,1,463,1,0,259,20,1,380,84,0,212,72,1,464,1,0,261,20,1,465,0,0,261,19,1,462,2,0,260,21,1,21,442,2,18,248,2,457,6,0,255,23,1,459,5,0,256,22,1,0,463,2,0,260,2,0,463,2,0,260,2,99,364,2,72,212,2,457,6,0,255,23,1,368,31,66,208,34,50
2017-08-04T23:59:58Z,261,465,458,255,465,261,456,254,83,64,0,0,0,0,0,0,2,463,1,260,2,460,1,257,0,0,0,0,0,0,0,0,359,20,85,201,32,61,381,84,0,212,73,1,463,1,0,260,20,1,382,82,0,213,71,1,464,1,0,261,20,1,465,0,0,261,19,1,463,1,0,260,20,1,21,442,2,18,248,2,458,5,0,256,22,1,460,4,0,257,21,1,0,463,2,0,260,2,0,462,3,0,260,3,96,367,2,69,213,2,457,6,0,255,23,1,370,28,67,211,32,50
2017-08-05T23:59:59Z,264,468,461,258,468,264,460,257,86,66,0,0,0,0,0,0,2,466,1,263,3,462,2,259,0,0,0,0,0,0,0,0,360,23,84,202,35,61,382,86,0,214,75,1,464,3,0,261,22,1,385,82,0,217,73,1,468,0,0,264,20,1,468,0,0,264,21,1,466,1,0,263,22,1,24,442,2,20,251,2,461,5,0,258,24,1,462,5,0,259,24,1,0,466,2,0,263,2,0,466,2,0,263,2,101,365,2,73,212,2,458,7,1,257,24,2,368,32,68,210,35,51
2017-08-06T23:59:59Z,262,464,456,256,464,262,454,254,88,68,0,0,0,0,0,0,0,464,0,262,2,459,1,258,0,0,0,0,0,0,0,0,360,21,82,202,33,60,381,83,0,214,72,1,463,0,0,261,20,1,380,83,0,213,72,1,464,0,0,262,19,1,464,0,0,262,20,1,463,0,0,262,20,1,22,442,0,18,250,1,457,5,0,257,23,1,458,5,0,257,22,1,0,464,0,0,262,1,0,464,0,0,262,1,101,363,0,72,212,1,458,4,0,257,22,1,366,29,69,210,33,51
2017-08-07T23:59:59Z,259,459,452,253,459,259,450,252,83,63,0,0,0,0,0,0,0,459,0,259,2,454,1,255,0,0,0,0,0,0,0,0,356,22,80,199,34,58,378,81,0,211,70,1,457,1,0,257,19,1,377,81,0,211,70,1,459,0,0,259,18,1,459,0,0,259,19,1,457,1,0,258,20,1,20,439,0,17,248,1,452,5,0,253,22,1,453,5,0,254,22,1,0,459,0,0,259,1,0,459,0,0,259,1,97,362,0,71,211,1,453,4,0,254,20,1,364,31,64,207,34,49
2017-08-08T23:59:59Z,259,463,456,253,463,259,454,251,83,64,0,0,0,0,0,0,2,461,1,258,2,458,1,255,0,0,0,0,0,0,0,0,359,21,82,199,31,59,383,80,0,212,69,1,460,2,0,257,19,1,382,80,0,212,69,1,463,0,0,259,17,1,463,0,0,259,17,1,461,1,0,259,18,1,20,441,2,17,247,2,456,5,1,253,20,2,456,6,0,254,21,1,0,461,2,0,258,2,0,461,2,0,258,2,93,368,2,67,212,2,456,5,0,253,20,1,367,31,65,208,34,49
2017-08-09T23:59:59Z,260,462,455,254,462,260,454,254,83,64,0,0,0,0,0,0,3,459,2,258,2,456,1,255,0,0,0,0,0,0,0,0,360,21,80,201,34,58,381,81,0,212,73,1,461,0,0,259,19,1,382,80,0,214,71,1,462,0,0,260,19,1,462,0,0,260,20,1,462,0,0,260,19,1,21,439,2,18,247,2,456,5,0,255,23,1,456,5,0,255,22,1,1,459,2,1,259,2,1,459,2,1,258,2,94,366,2,68,212,2,454,5,1,253,22,2,367,30,65,210,34,51
2017-08-10T23:59:58Z,258,459,451,252,458,257,450,251,88,66,0,0,0,0,0,0,2,457,1,257,2,454,1,254,0,0,0,0,0,0,0,0,353,21,84,198,31,60,376,82,1,210,70,2,457,1,0,256,18,1,377,82,0,211,70,1,459,0,0,258,17,1,459,0,0,258,18,1,459,0,0,258,18,1,21,436,2,17,246,2,454,4,0,254,19,1,453,5,0,253,21,1,0,457,2,0,257,2,0,457,2,0,257,2,98,359,2,69,209,2,453,4,0,253,19,1,360,31,68,206,33,50
2017-08-11T23:59:59Z,259,459,452,253,458,258,451,252,85,64,0,0,0,0,0,0,3,456,2,257,2,454,1,255,0,0,0,0,0,0,0,0,354,20,84,199,31,59,378,81,0,211,69,1,458,0,0,258,18,1,376,83,0,209,71,1,459,0,0,259,17,1,459,0,0,259,18,1,459,0,0,259,17,1,20,437,2,17,247,2,454,4,0,255,19,1,453,4,1,254,19,2,0,457,2,0,258,2,0,457,2,0,258,2,97,360,2,70,209,2,453,4,0,254,19,1,362,30,67,207,33,50
2017-08-12T23:59:59Z,263,464,456,257,463,262,456,257,87,66,0,0,0,0,0,0,2,462,1,262,2,459,1,259,0,0,0,0,0,0,0,0,358,21,83,201,34,61,379,84,0,212,75,2,462,0,0,262,21,2,381,82,0,214,73,2,464,0,0,263,21,2,464,0,0,263,21,2,464,0,0,263,21,2,24,437,3,19,249,4,457,6,0,258,22,2,456,6,1,257,23,3,2,460,2,2,261,3,0,461,3,0,261,4,98,363,2,71,213,3,456,6,0,257,23,1,362,34,68,208,36,52
2017-08-13T23:59:59Z,262,468,458,256,468,262,457,255,87,67,0,0,0,0,0,0,2,466,1,261,2,463,1,258,0,0,0,0,0,0,0,0,359,23,85,199,33,62,383,85,0,211,75,1,467,0,0,261,20,1,385,83,0,212,73,1,468,0,0,262,20,1,468,0,0,262,20,1,468,0,0,262,19,1,21,445,2,16,250,2,462,5,0,257,23,1,462,5,0,257,22,1,0,466,2,0,261,2,0,466,2,0,261,2,97,366,5,71,211,4,462,4,0,257,22,1,368,32,68,210,35,51
2017-08-14T23:59:59Z,264,470,461,258,470,264,460,257,87,66,0,0,0,0,0,0,2,468,1,263,2,465,1,260,0,0,0,0,0,0,0,0,363,21,85,201,31,62,387,83,0,214,71,1,468,1,0,263,19,1,388,82,0,215,70,1,470,0,0,264,18,1,470,0,0,264,18,1,470,0,0,264,18,1,22,446,2,18,250,2,465,4,0,260,20,1,464,5,0,260,21,1,0,468,2,0,263,2,0,468,2,0,263,2,97,371,2,70,214,2,464,4,0,259,20,1,370,34,66,211,36,50
2017-08-15T23:59:59Z,264,475,466,258,475,264,465,257,86,66,0,0,0,0,0,0,2,473,1,263,2,470,1,260,0,0,0,0,0,0,0,0,366,22,86,200,32,63,392,83,0,215,71,1,474,0,0,263,19,1,394,81,0,216,70,1,475,0,0,264,19,1,475,0,0,264,19,1,475,0,0,264,19,1,22,451,2,18,250,2,470,4,0,260,21,1,470,4,0,260,21,1,0,473,2,0,263,2,0,473,2,0,263,2,98,375,2,71,213,2,469,4,0,259,20,1,376,32,67,212,35,50
2017-08-16T23:59:58Z,263,474,465,257,474,263,464,256,87,67,0,0,0,0,0,0,2,472,1,262,2,469,1,259,0,0,0,0,0,0,0,0,365,24,84,198,34,62,391,83,0,213,72,1,471,2,0,261,19,1,394,80,0,215,70,1,474,0,0,263,19,1,474,0,0,263,20,1,474,0,0,263,19,1,23,449,2,18,251,2,469,4,0,259,21,1,469,4,0,259,21,1,3,469,2,2,261,2,0,472,2,0,262,2,99,373,2,71,213,2,466,6,0,257,22,1,374,35,65,210,37,50